Location: Seattle
(47.6064°N, 122.3308°W)
Time: 05:06:32
(UTC-08:00)

CZ-6A DEB - Pass Details

Date: 17 December 2023
Orbit: 685 x 828 km, 98.7° (Epoch: 04 March)

Event Time Altitude Azimuth Distance (km) Brightness Sun altitude
Rises 18:24:55 0° 179° (S) 3,377 ? -20.2°
Reaches altitude 10° 18:27:21 10° 185° (S) 2,446 ? -20.6°
Maximum altitude 18:32:38 50° 260° (W) 1,049 ? -21.5°
Drops below altitude 10° 18:37:53 10° 336° (NNW) 2,424 ? -22.3°
Sets 18:40:17 0° 342° (NNW) 3,343 ? -22.7°
